Simultaneous Nadir Overpasses (SNOs) Predictions

Prediction of SNOs between GOES-15 and TERRA Satellite Orbit:

Table of predicted SNOs for the next 14.0 days since TLE Epoch: 11/27/2012
Index Date Time (GOES-15) GOES-15 Lat,Lon TERRA Lat,Lon Distance(km) Time Diff (sec)
1 11/27/2012 19:39:39 -0.15,-135.12 0.29,-137.09 224.52 80
2 11/29/2012 19:24:49 -0.15,-135.18 -0.39,-134.14 118.60 80
3 11/30/2012 07:48:53 0.13,-135.17 -0.73,-139.33 471.94 80
4 12/01/2012 19:12:38 -0.15,-135.24 -1.02,-131.18 461.26 80
5 12/02/2012 07:36:42 0.13,-135.23 -0.09,-136.37 129.49 80
6 12/04/2012 07:21:50 0.13,-135.28 0.50,-133.41 212.56 80
7 12/04/2012 19:45:45 -0.11,-135.31 0.57,-138.57 369.66 80
8 12/06/2012 19:33:33 -0.11,-135.36 -0.04,-135.60 28.11 80
9 12/08/2012 19:18:43
